• Join FlightAware (Why Join?)
  • Login
  • US Flag 
10:49PM EDT


 

Airport Tracker/Info


-or-


 

Live Flight TrackerFlight Track Log ✈ EJA221 ✈ 17-Jul-2013 ✈ KHDN - KDEN

Flight Track Log - Related Links

Times and Time Zones

All times are in EDT time to prevent confusion due to time zone crossing. See the EJA221 flight status page for this flight to view local times or setup timezone preferences in your user account.

Time Position Orientation Groundspeed Altitude Reporting Facility
EDT Latitude Longitude Course Direction KTS MPH feet Rate Location/Type
11:35AM 40.4858 -107.2264 93° East 9 10 6,500  Level Denver Center
11:36AM 40.4875 -107.2342 286° West 16 18 6,500  Level Denver Center
11:37AM 40.4842 -107.2278 124° Southeast 27 31 6,500 960 Level Denver Center
11:38AM 40.4483 -107.1836 137° Southeast 140 161 8,600 2,280 Climbing Denver Center
11:39AM 40.4167 -107.1150 121° Southeast 228 262 11,300 2,580 Climbing Denver Center
11:41AM 40.4824 -106.7909 93° East  Level FlightAware Approximate
11:41AM 40.4136 -106.9861 92° East 298 343 14,000  Level Denver Center
11:42AM 40.4779 -106.6657 93° East  Level FlightAware Approximate
11:42AM 40.4103 -106.8667 92° East 336 387 16,000  Level Denver Center
11:43AM 40.4061 -106.7378 92° East 369 425 17,700 1,860 Climbing Denver Center
11:44AM 40.4022 -106.5947 92° East 386 444 19,900 2,100 Climbing Denver Center
11:45AM 40.3956 -106.4328 93° East 406 467 22,100 1,500 Climbing Denver Center
11:46AM 40.3897 -106.2617 93° East 421 484 23,000 420 Climbing Denver Center
11:47AM 40.3839 -106.0992 93° East 465 535 23,000  Level Denver Center
11:48AM 40.3783 -105.9217 92° East 484 557 23,000  Level Denver Center
11:49AM 40.3697 -105.7400 94° East 411 473 23,000 -780 Level Denver Center
11:50AM 40.3631 -105.5958 93° East 397 457 21,400 -1,800 Descending Denver Center
11:51AM 40.3567 -105.4608 94° East 367 422 19,400 -1,860 Descending Denver Center
11:52AM 40.3408 -105.3203 98° East 388 447 17,600 -1,860 Descending Denver Center
11:53AM 40.3203 -105.1756 101° East 378 435 15,600 -1,800 Descending Denver Center
11:54AM 40.3025 -105.0428 100° East 372 428 14,000 -1,500 Descending Denver Center
11:55AM 40.2719 -104.9167 108° East 344 396 12,600 -1,440 Descending Denver Center
11:56AM 40.2153 -104.8328 131° Southeast 309 356 11,100 -1,440 Descending Denver Center
11:57AM 40.1536 -104.7661 140° Southeast 258 297 9,700 -1,320 Descending Denver Center
11:58AM 40.0947 -104.7367 159° South 224 258 8,400 -1,080 Descending Denver Center
11:59AM 40.0447 -104.7119 159° South 193 222 7,500 -960 Descending Denver Center
12:00PM 39.9944 -104.6956 166° South 174 200 6,500 -660 Descending Denver Center
12:01PM 39.9503 -104.6956 180° South 159 183 6,200 -480 Descending Denver Center
12:02PM 39.9067 -104.6958 180° South 147 169 5,600 -480 Descending Denver Center
12:03PM 39.8764 -104.6964 181° South 97 112 5,300 -300 Descending Denver Center
12:05PM 39.8617 -104.6732 180° South  Level Estimated
12:12PM 39.8617 -104.6732 180° South  Level Estimated
12:13PM 39.8617 -104.6732 180° South  Level Estimated